TimeCDT,TemperatureF,Dew PointF,Humidity,Sea Level PressureIn,VisibilityMPH,Wind Direction,Wind SpeedMPH,Gust SpeedMPH,PrecipitationIn,Events,Conditions,WindDirDegrees,DateUTC
12:56 AM,62.1,57.9,86,30.04,4.0,West,3.5,-,N/A,,Clear,270,2012-11-03 05:56:00
1:56 AM,63.0,59.0,87,30.03,4.0,Calm,Calm,-,0.00,Rain,Light Rain,0,2012-11-03 06:56:00
2:48 AM,62.6,57.2,82,30.04,2.5,Calm,Calm,-,0.00,Rain,Light Rain,0,2012-11-03 07:48:00
2:56 AM,62.1,59.0,90,30.03,0.5,Calm,Calm,-,0.00,Fog,Fog,0,2012-11-03 07:56:00
3:02 AM,62.6,57.2,82,30.04,0.2,Calm,Calm,-,N/A,Fog,Fog,0,2012-11-03 08:02:00
3:12 AM,62.6,57.2,82,30.04,1.2,West,3.5,-,N/A,,Partly Cloudy,270,2012-11-03 08:12:00
3:14 AM,62.6,59.0,88,30.04,2.0,West,3.5,-,N/A,,Partly Cloudy,270,2012-11-03 08:14:00
3:25 AM,62.6,59.0,88,30.04,1.5,Calm,Calm,-,N/A,,Partly Cloudy,0,2012-11-03 08:25:00
3:44 AM,60.8,57.2,88,30.04,3.0,West,3.5,-,0.00,Rain,Light Rain,280,2012-11-03 08:44:00
3:54 AM,62.6,59.0,88,30.05,1.8,West,3.5,-,0.00,,Clear,260,2012-11-03 08:54:00
3:56 AM,63.0,59.0,87,30.04,1.5,West,3.5,-,0.00,,Clear,260,2012-11-03 08:56:00
4:25 AM,60.8,57.2,88,30.05,1.2,Calm,Calm,-,0.00,,Scattered Clouds,0,2012-11-03 09:25:00
4:27 AM,60.8,57.2,88,30.05,0.8,Calm,Calm,-,0.00,,Mist,0,2012-11-03 09:27:00
4:39 AM,62.6,57.2,82,30.06,0.2,Calm,Calm,-,0.00,Fog-Rain,Light Rain,0,2012-11-03 09:39:00
4:56 AM,62.1,59.0,90,30.05,0.2,Calm,Calm,-,0.00,Fog,Fog,0,2012-11-03 09:56:00
5:56 AM,62.1,59.0,90,30.07,0.2,Calm,Calm,-,N/A,Fog,Fog,0,2012-11-03 10:56:00
6:56 AM,59.0,55.0,87,30.09,0.2,Calm,Calm,-,N/A,Fog,Fog,0,2012-11-03 11:56:00
7:56 AM,60.1,55.9,86,30.11,0.2,Calm,Calm,-,0.01,Fog,Fog,0,2012-11-03 12:56:00
8:21 AM,62.6,59.0,88,30.12,1.0,Calm,Calm,-,N/A,,Mist,0,2012-11-03 13:21:00
8:32 AM,62.6,60.8,94,30.12,1.5,Calm,Calm,-,N/A,,Partly Cloudy,0,2012-11-03 13:32:00
8:44 AM,64.4,60.8,88,30.12,2.5,Calm,Calm,-,N/A,,Clear,0,2012-11-03 13:44:00
8:51 AM,64.4,60.8,88,30.12,4.0,Calm,Calm,-,N/A,,Clear,0,2012-11-03 13:51:00
8:56 AM,66.0,62.1,87,30.12,4.0,Calm,Calm,-,N/A,,Clear,0,2012-11-03 13:56:00
9:56 AM,75.0,62.1,64,30.12,8.0,NNW,5.8,-,N/A,,Clear,340,2012-11-03 14:56:00
10:56 AM,80.1,61.0,52,30.11,10.0,North,4.6,-,N/A,,Clear,350,2012-11-03 15:56:00
11:56 AM,82.9,61.0,47,30.10,10.0,Variable,6.9,-,N/A,,Clear,0,2012-11-03 16:56:00
12:56 PM,84.0,59.0,43,30.07,10.0,North,4.6,-,N/A,,Clear,360,2012-11-03 17:56:00
1:56 PM,86.0,57.9,38,30.05,10.0,Variable,5.8,-,N/A,,Scattered Clouds,0,2012-11-03 18:56:00
2:56 PM,86.0,59.0,40,30.04,10.0,North,4.6,-,N/A,,Clear,350,2012-11-03 19:56:00
3:56 PM,86.0,57.9,38,30.03,10.0,NW,6.9,-,N/A,,Partly Cloudy,320,2012-11-03 20:56:00
4:56 PM,84.0,57.0,40,30.02,10.0,WNW,5.8,-,N/A,,Scattered Clouds,290,2012-11-03 21:56:00
5:56 PM,78.1,59.0,52,30.03,10.0,Calm,Calm,-,N/A,,Clear,0,2012-11-03 22:56:00
6:56 PM,72.0,60.1,66,30.04,10.0,Calm,Calm,-,N/A,,Clear,0,2012-11-03 23:56:00
7:56 PM,68.0,60.1,76,30.05,10.0,Calm,Calm,-,N/A,,Clear,0,2012-11-04 00:56:00
8:56 PM,71.1,60.1,68,30.05,10.0,SW,4.6,-,N/A,,Clear,230,2012-11-04 01:56:00
9:56 PM,69.1,60.1,73,30.06,10.0,West,4.6,-,N/A,,Clear,270,2012-11-04 02:56:00
10:56 PM,68.0,60.1,76,30.07,10.0,West,4.6,-,N/A,,Clear,280,2012-11-04 03:56:00
11:56 PM,68.0,60.1,76,30.06,10.0,West,4.6,-,N/A,,Clear,280,2012-11-04 04:56:00